Location: Kershaw
(34.5481°N, 80.5823°W)
Time: 08:53:09
(UTC+00:00)

Tiros 1 despin weight - Pass Details

Date: 08 October 2022
Orbit: 590 x 637 km, 48.2° (Epoch: 28 November)

Event Time Altitude Azimuth Distance (km) Brightness Sun altitude
Rises 17:52:03 0° 216° (SW) 2,802 ? 48.2°
Reaches altitude 10° 17:54:22 10° 211° (SSW) 1,907 ? 48.0°
Maximum altitude 17:58:34 47° 137° (SE) 782 ? 47.8°
Drops below altitude 10° 18:02:49 10° 63° (ENE) 1,934 ? 47.5°
Sets 18:05:11 0° 58° (ENE) 2,847 ? 47.3°
